User: anonymous   Login
Location: Oshawa
(43.9000°N, 78.8670°W)
Time: 00:43:13
(UTC-05:00)
Language:

Cosmos 839 Rocket - Orbit

View from above orbital plane
View from above orbital plane
View from above satellite
View from above satellite

Ground track
Ground track

The orbit data is extracted from the following two-line orbital elements,

1 09013U 76067B   16339.66779581 -.00000085  00000-0 -10162-3 0  9998
2 09013  65.8673  24.0063 0710394 149.9548 208.8807 12.35326215822611
Epoch (UTC): 04 December 2016 16:01:37
Eccentricity: 0.0710394
inclination: 65.8673°
perigee height: 965 km
apogee height: 2088 km
right ascension of ascending node: 24.0063°
argument of perigee: 149.9548°
revolutions per day: 12.35326215
mean anomaly at epoch: 208.8807°
orbit number at epoch: 82261

The dashed part of the orbit path shows where the satellite is in the earth's shadow,  

DLR